This is the latest recevied weather packets stored in our database for station/object KB0RPJ. If no packets are shown the sender has not sent any weather packets the latest 10 day(s).
| Time | Temp. | Humidity | Pressure | Rain* | Wind** | Luminosity | Snow |
|---|---|---|---|---|---|---|---|
| 1778033104 | 12.22° C | 46% | 1011.7 hPa | 0 mm | - | 0 W/m² | - |
| 1778032805 | 12.22° C | 46% | 1011.7 hPa | 0 mm | - | 0 W/m² | - |
| 1778032505 | 12.22° C | 46% | 1011.6 hPa | 0 mm | - | 0 W/m² | - |
| 1778032205 | 12.22° C | 48% | 1011.6 hPa | 0 mm | - | 0 W/m² | - |
| 1778031918 | 12.22° C | 50% | 1011.7 hPa | 0 mm | - | 0 W/m² | - |
| 1778031606 | 12.22° C | 54% | 1011.7 hPa | 0 mm | - | 0 W/m² | - |
| 1778031305 | 12.22° C | 58% | 1011.6 hPa | 0 mm | - | 0 W/m² | - |
| 1778031005 | 12.78° C | 61% | 1011.5 hPa | 0 mm | - | 0 W/m² | - |
| 1778030705 | 12.78° C | 62% | 1011.5 hPa | 0 mm | - | 0 W/m² | - |
| 1778030405 | 12.78° C | 63% | 1011.4 hPa | 0 mm | - | 0 W/m² | - |
| 1778030105 | 12.78° C | 61% | 1011.3 hPa | 0 mm | - | 0 W/m² | - |
| 1778029805 | 12.78° C | 61% | 1011.2 hPa | 0 mm | - | 2 W/m² | - |
| 1778029504 | 12.78° C | 60% | 1011.1 hPa | 0 mm | - | 3 W/m² | - |
| 1778029206 | 12.78° C | 59% | 1011.1 hPa | 0 mm | - | 5 W/m² | - |
| 1778028905 | 12.78° C | 58% | 1011.1 hPa | 0 mm | - | 7 W/m² | - |
| 1778028607 | 12.78° C | 58% | 1010.9 hPa | 0 mm | - | 11 W/m² | - |
| 1778028305 | 12.78° C | 58% | 1010.8 hPa | 0 mm | - | 12 W/m² | - |
| 1778028004 | 13.33° C | 58% | 1010.7 hPa | 0 mm | - | 14 W/m² | - |
| 1778027705 | 13.33° C | 57% | 1010.7 hPa | 0 mm | - | 15 W/m² | - |
| 1778027404 | 13.33° C | 56% | 1010.5 hPa | 0 mm | - | 15 W/m² | - |
| 1778027105 | 13.33° C | 56% | 1010.5 hPa | 0 mm | - | 19 W/m² | - |
| 1778026805 | 13.33° C | 55% | 1010.7 hPa | 0 mm | - | 18 W/m² | - |
| 1778026504 | 13.33° C | 56% | 1010.8 hPa | 0 mm | - | 17 W/m² | - |
| 1778026205 | 13.33° C | 56% | 1010.6 hPa | 0 mm | - | 34 W/m² | - |
| 1778025904 | 13.33° C | 57% | 1010.6 hPa | 0 mm | - | 34 W/m² | - |
* Rain latest hour (hover to see other rain measurements)
** Current wind speed in m/s (hover to see current wind gust speed)